• In Hungary
  • List of Countries
  • For 7 days
  • Water Temperature
  • Satellite Maps
  • Weather Map
  • News
  • Weather Widgets
  • user-avatar
    Login

    Hourly Weather Postolowo

    Today, 12 November, Monday

    Time Temperature Precipitation Wind Pressure Humidity
    00:00 +5°C° 0 mm 4 mps 750 mmHg 89%
    01:00 +4°C° 0 mm 3 mps 750 mmHg 93%
    02:00 +5°C° 0 mm 3 mps 750 mmHg 93%
    03:00 +5°C° 0 mm 3 mps 750 mmHg 92%
    04:00 +5°C° 0 mm 4 mps 751 mmHg 92%
    05:00 +5°C° 0 mm 4 mps 751 mmHg 91%
    06:00 +5°C° 0 mm 4 mps 751 mmHg 90%
    07:00 +5°C° 0 mm 4 mps 751 mmHg 91%
    08:00 +6°C° 0 mm 4 mps 751 mmHg 87%
    09:00 +7°C° 0 mm 5 mps 752 mmHg 83%
    10:00 +8°C° 0 mm 5 mps 752 mmHg 80%
    11:00 +9°C° 0 mm 5 mps 752 mmHg 77%
    12:00 +11°C° 0 mm 4 mps 752 mmHg 74%
    13:00 +11°C° 0 mm 4 mps 752 mmHg 71%
    14:00 +11°C° 0 mm 4 mps 752 mmHg 73%
    15:00 +10°C° 0 mm 4 mps 752 mmHg 74%
    16:00 +10°C° 0 mm 4 mps 752 mmHg 76%
    17:00 +10°C° 0 mm 4 mps 751 mmHg 76%
    18:00 +9°C° 0 mm 5 mps 751 mmHg 77%
    19:00 +9°C° 0 mm 5 mps 751 mmHg 77%
    20:00 +9°C° 0 mm 5 mps 751 mmHg 79%
    21:00 +9°C° 0 mm 5 mps 751 mmHg 82%
    22:00 +9°C° 0 mm 6 mps 751 mmHg 84%
    23:00 +9°C° 0 mm 5 mps 751 mmHg 86%

    Tomorrow, 13 November, Tuesday

    Time Temperature Precipitation Wind Pressure Humidity
    00:00 +9°C° 0 mm 5 mps 751 mmHg 87%
    01:00 +8°C° 0 mm 5 mps 751 mmHg 89%
    02:00 +8°C° 0 mm 5 mps 751 mmHg 89%
    03:00 +8°C° 0 mm 5 mps 751 mmHg 90%
    04:00 +8°C° 0 mm 4 mps 751 mmHg 90%
    05:00 +7°C° 0 mm 4 mps 751 mmHg 90%
    06:00 +7°C° 0 mm 4 mps 751 mmHg 91%
    07:00 +7°C° 0 mm 4 mps 751 mmHg 91%
    08:00 +8°C° 0 mm 4 mps 751 mmHg 88%
    09:00 +9°C° 0 mm 3 mps 751 mmHg 85%
    10:00 +10°C° 0 mm 3 mps 751 mmHg 83%
    11:00 +10°C° 0.2 mm 3 mps 751 mmHg 83%
    12:00 +10°C° 0.2 mm 3 mps 751 mmHg 84%
    13:00 +10°C° 0.2 mm 4 mps 751 mmHg 84%
    14:00 +10°C° 1 mm 4 mps 751 mmHg 86%
    15:00 +10°C° 1 mm 4 mps 751 mmHg 87%
    16:00 +8°C° 1 mm 5 mps 751 mmHg 89%
    17:00 +8°C° 0.4 mm 5 mps 751 mmHg 88%
    18:00 +8°C° 0.4 mm 5 mps 751 mmHg 86%
    19:00 +8°C° 0.4 mm 5 mps 751 mmHg 85%
    20:00 +8°C° 0.1 mm 5 mps 752 mmHg 84%
    21:00 +8°C° 0.1 mm 5 mps 752 mmHg 84%
    22:00 +8°C° 0.1 mm 5 mps 752 mmHg 83%
    23:00 +7°C° 0 mm 5 mps 752 mmHg 84%

    Day after tomorrow, 14 November, Wednesday

    Time Temperature Precipitation Wind Pressure Humidity
    00:00 +7°C° 0 mm 5 mps 752 mmHg 84%
    01:00 +7°C° 0 mm 5 mps 752 mmHg 85%
    02:00 +7°C° 0.1 mm 5 mps 752 mmHg 84%
    03:00 +7°C° 0.1 mm 5 mps 753 mmHg 83%
    04:00 +7°C° 0.1 mm 5 mps 753 mmHg 83%
    05:00 +7°C° 0.2 mm 5 mps 753 mmHg 83%
    06:00 +7°C° 0.2 mm 5 mps 753 mmHg 84%
    07:00 +7°C° 0.2 mm 5 mps 753 mmHg 85%
    08:00 +8°C° 0.1 mm 5 mps 754 mmHg 83%
    09:00 +8°C° 0.1 mm 5 mps 754 mmHg 82%
    10:00 +9°C° 0.1 mm 5 mps 755 mmHg 80%
    11:00 +9°C° 0.1 mm 5 mps 755 mmHg 78%
    12:00 +9°C° 0.1 mm 5 mps 755 mmHg 76%
    13:00 +9°C° 0.1 mm 5 mps 756 mmHg 75%
    14:00 +10°C° 0 mm 4 mps 756 mmHg 77%
    15:00 +10°C° 0 mm 4 mps 756 mmHg 79%
    16:00 +8°C° 0 mm 4 mps 757 mmHg 82%
    17:00 +9°C° 0 mm 3 mps 757 mmHg 84%
    18:00 +8°C° 0 mm 3 mps 757 mmHg 87%
    19:00 +8°C° 0 mm 3 mps 758 mmHg 90%
    20:00 +8°C° 0 mm 3 mps 758 mmHg 91%
    21:00 +7°C° 0 mm 2 mps 758 mmHg 92%
    22:00 +7°C° 0 mm 2 mps 758 mmHg 92%
    23:00 +7°C° 0 mm 2 mps 759 mmHg 91%

    15 November, Thursday

    Time Temperature Precipitation Wind Pressure Humidity
    00:00 +7°C° 0 mm 2 mps 759 mmHg 90%
    01:00 +7°C° 0 mm 2 mps 759 mmHg 89%
    02:00 +7°C° 0 mm 2 mps 759 mmHg 88%
    03:00 +8°C° 0 mm 1 mps 759 mmHg 86%
    04:00 +8°C° 0 mm 1 mps 760 mmHg 85%
    05:00 +8°C° 0 mm 1 mps 760 mmHg 84%
    06:00 +8°C° 0 mm 1 mps 760 mmHg 83%
    07:00 +8°C° 0 mm 1 mps 760 mmHg 82%
    08:00 +9°C° 0 mm 1 mps 760 mmHg 79%
    09:00 +9°C° 0 mm 1 mps 761 mmHg 76%
    10:00 +8°C° 0 mm 0 mps 761 mmHg 74%
    11:00 +10°C° 0 mm 1 mps 761 mmHg 71%
    12:00 +10°C° 0 mm 1 mps 761 mmHg 69%
    13:00 +10°C° 0 mm 1 mps 761 mmHg 66%
    14:00 +10°C° 0 mm 1 mps 761 mmHg 70%
    15:00 +9°C° 0 mm 1 mps 761 mmHg 73%
    16:00 +8°C° 0 mm 1 mps 762 mmHg 76%
    17:00 +8°C° 0 mm 1 mps 762 mmHg 78%
    18:00 +7°C° 0 mm 1 mps 762 mmHg 80%
    19:00 +7°C° 0 mm 1 mps 762 mmHg 82%
    20:00 +6°C° 0 mm 1 mps 762 mmHg 84%
    21:00 +6°C° 0 mm 1 mps 763 mmHg 85%
    22:00 +6°C° 0 mm 1 mps 763 mmHg 86%
    23:00 +6°C° 0 mm 1 mps 763 mmHg 87%

    16 November, Friday

    Time Temperature Precipitation Wind Pressure Humidity
    00:00 +5°C° 0 mm 1 mps 763 mmHg 87%
    01:00 +5°C° 0 mm 1 mps 763 mmHg 88%
    02:00 +5°C° 0 mm 1 mps 764 mmHg 89%
    03:00 +4°C° 0 mm 2 mps 764 mmHg 89%
    04:00 +4°C° 0 mm 2 mps 764 mmHg 90%
    05:00 +4°C° 0 mm 2 mps 764 mmHg 90%
    06:00 +3°C° 0 mm 2 mps 764 mmHg 91%
    07:00 +3°C° 0 mm 2 mps 764 mmHg 91%
    08:00 +4°C° 0 mm 2 mps 765 mmHg 88%
    09:00 +5°C° 0 mm 2 mps 765 mmHg 84%
    10:00 +6°C° 0 mm 2 mps 765 mmHg 80%
    11:00 +6°C° 0 mm 2 mps 765 mmHg 76%
    12:00 +7°C° 0 mm 2 mps 766 mmHg 73%
    13:00 +7°C° 0 mm 2 mps 766 mmHg 70%
    14:00 +7°C° 0 mm 2 mps 766 mmHg 74%
    15:00 +6°C° 0 mm 2 mps 766 mmHg 78%
    16:00 +5°C° 0 mm 2 mps 766 mmHg 82%
    17:00 +5°C° 0 mm 2 mps 766 mmHg 84%
    18:00 +4°C° 0 mm 2 mps 766 mmHg 86%
    19:00 +4°C° 0 mm 2 mps 766 mmHg 89%
    20:00 +4°C° 0 mm 2 mps 766 mmHg 89%
    21:00 +3°C° 0 mm 2 mps 767 mmHg 90%
    22:00 +3°C° 0 mm 2 mps 767 mmHg 91%
    23:00 +3°C° 0 mm 2 mps 767 mmHg 91%

    17 November, Saturday

    Time Temperature Precipitation Wind Pressure Humidity
    00:00 +2°C° 0 mm 2 mps 767 mmHg 91%
    01:00 +2°C° 0 mm 2 mps 767 mmHg 91%
    02:00 +3°C° 0 mm 1 mps 767 mmHg 91%
    03:00 +3°C° 0 mm 1 mps 767 mmHg 91%
    04:00 +2°C° 0 mm 1 mps 767 mmHg 90%
    05:00 +2°C° 0 mm 1 mps 767 mmHg 90%
    06:00 +2°C° 0 mm 1 mps 767 mmHg 90%
    07:00 +2°C° 0 mm 1 mps 767 mmHg 90%
    08:00 +3°C° 0 mm 1 mps 767 mmHg 86%
    09:00 +4°C° 0 mm 1 mps 768 mmHg 82%
    10:00 +5°C° 0 mm 1 mps 768 mmHg 77%
    11:00 +5°C° 0 mm 1 mps 768 mmHg 74%
    12:00 +6°C° 0 mm 1 mps 768 mmHg 70%
    13:00 +7°C° 0 mm 1 mps 768 mmHg 67%
    14:00 +5°C° 0 mm 0 mps 767 mmHg 70%
    15:00 +4°C° 0 mm 0 mps 767 mmHg 74%
    16:00 +4°C° 0 mm 0 mps 767 mmHg 78%
    17:00 +3°C° 0 mm 0 mps 767 mmHg 79%
    18:00 +3°C° 0 mm 0 mps 767 mmHg 81%
    19:00 +3°C° 0 mm 0 mps 766 mmHg 82%
    20:00 +2°C° 0 mm 0 mps 766 mmHg 83%
    21:00 +2°C° 0 mm 0 mps 766 mmHg 83%
    22:00 +3°C° 0 mm 1 mps 766 mmHg 84%
    23:00 +3°C° 0 mm 1 mps 766 mmHg 84%
    Show more